Location: Antoign�
(47.0844°N, 0.1131°W)
Time: 03:34:47
(UTC+00:00)

SJ-6B - Pass Details

Date: 03 March 2021
Orbit: 509 x 581 km, 97.6° (Epoch: 16 April)

Event Time Altitude Azimuth Distance (km) Brightness Sun altitude
Exits shadow 19:23:02 28° 132° (SE) 1,093 3.9 -16.8°
Maximum altitude 19:24:52 49° 72° (ENE) 743 3.1 -17.1°
Drops below altitude 10° 19:28:48 10° 357° (N) 1,875 5.7 -17.7°
Sets 19:30:58 0° 352° (N) 2,766 6.6 -18.1°
